EN

Hourly Weather Aban

Today, 12 June, Saturday

Time Temperature Precipitation Wind Pressure Humidity
00:00 +6°C° 0 mm 2 mps 741 mmHg 62%
01:00 +5°C° 0 mm 2 mps 741 mmHg 63%
02:00 +5°C° 0 mm 2 mps 741 mmHg 64%
03:00 +4°C° 0 mm 2 mps 740 mmHg 65%
04:00 +6°C° 0 mm 2 mps 740 mmHg 60%
05:00 +8°C° 0 mm 2 mps 740 mmHg 56%
06:00 +10°C° 0 mm 2 mps 740 mmHg 51%
07:00 +13°C° 0 mm 2 mps 740 mmHg 46%
08:00 +15°C° 0 mm 2 mps 740 mmHg 40%
09:00 +17°C° 0 mm 2 mps 740 mmHg 35%
10:00 +18°C° 0 mm 2 mps 740 mmHg 33%
11:00 +18°C° 0 mm 2 mps 739 mmHg 32%
12:00 +19°C° 0 mm 2 mps 739 mmHg 30%
13:00 +19°C° 0 mm 2 mps 739 mmHg 30%
14:00 +21°C° 0 mm 1 mps 738 mmHg 29%
15:00 +21°C° 0 mm 1 mps 738 mmHg 29%
16:00 +21°C° 0 mm 1 mps 738 mmHg 34%
17:00 +20°C° 0 mm 1 mps 738 mmHg 39%
18:00 +20°C° 0 mm 1 mps 738 mmHg 43%
19:00 +16°C° 0 mm 1 mps 737 mmHg 45%
20:00 +13°C° 0 mm 0 mps 737 mmHg 47%
21:00 +11°C° 0 mm 0 mps 737 mmHg 49%
22:00 +11°C° 0 mm 1 mps 737 mmHg 50%
23:00 +11°C° 0 mm 1 mps 737 mmHg 52%

Tomorrow, 13 June, Sunday

Time Temperature Precipitation Wind Pressure Humidity
00:00 +10°C° 0 mm 1 mps 737 mmHg 54%
01:00 +10°C° 0 mm 1 mps 737 mmHg 56%
02:00 +9°C° 0 mm 1 mps 737 mmHg 59%
03:00 +8°C° 0 mm 1 mps 737 mmHg 62%
04:00 +10°C° 0 mm 1 mps 737 mmHg 59%
05:00 +12°C° 0 mm 1 mps 737 mmHg 56%
06:00 +14°C° 0 mm 2 mps 737 mmHg 53%
07:00 +15°C° 0 mm 2 mps 737 mmHg 48%
08:00 +17°C° 0 mm 2 mps 737 mmHg 44%
09:00 +19°C° 0 mm 3 mps 736 mmHg 39%
10:00 +20°C° 0 mm 3 mps 736 mmHg 37%
11:00 +21°C° 0 mm 4 mps 736 mmHg 34%
12:00 +21°C° 0 mm 4 mps 735 mmHg 31%
13:00 +21°C° 0 mm 4 mps 735 mmHg 34%
14:00 +21°C° 0 mm 4 mps 735 mmHg 38%
15:00 +20°C° 0 mm 4 mps 735 mmHg 41%
16:00 +19°C° 0 mm 4 mps 735 mmHg 48%
17:00 +17°C° 0 mm 4 mps 735 mmHg 56%
18:00 +15°C° 0 mm 4 mps 735 mmHg 63%
19:00 +13°C° 0.4 mm 3 mps 735 mmHg 74%
20:00 +12°C° 0.4 mm 3 mps 735 mmHg 84%
21:00 +10°C° 0.4 mm 3 mps 735 mmHg 95%
22:00 +10°C° 0.5 mm 3 mps 735 mmHg 95%
23:00 +10°C° 0.5 mm 3 mps 735 mmHg 95%

Day after tomorrow, 14 June, Monday

Time Temperature Precipitation Wind Pressure Humidity
00:00 +10°C° 0.5 mm 4 mps 735 mmHg 96%
01:00 +10°C° 0.1 mm 3 mps 735 mmHg 96%
02:00 +10°C° 0.1 mm 3 mps 735 mmHg 96%
03:00 +9°C° 0.1 mm 3 mps 736 mmHg 96%
04:00 +9°C° 0 mm 3 mps 736 mmHg 91%
05:00 +9°C° 0 mm 3 mps 737 mmHg 87%
06:00 +8°C° 0 mm 4 mps 737 mmHg 83%
07:00 +11°C° 0 mm 4 mps 737 mmHg 72%
08:00 +12°C° 0 mm 4 mps 738 mmHg 62%
09:00 +13°C° 0 mm 4 mps 738 mmHg 51%
10:00 +14°C° 0 mm 4 mps 738 mmHg 48%
11:00 +14°C° 0 mm 4 mps 739 mmHg 45%
12:00 +14°C° 0 mm 4 mps 739 mmHg 42%
13:00 +16°C° 0 mm 3 mps 739 mmHg 42%
14:00 +16°C° 0 mm 3 mps 739 mmHg 42%
15:00 +16°C° 0 mm 3 mps 739 mmHg 42%
16:00 +16°C° 0 mm 3 mps 739 mmHg 43%
17:00 +16°C° 0 mm 2 mps 739 mmHg 44%
18:00 +16°C° 0 mm 2 mps 739 mmHg 45%
19:00 +15°C° 0 mm 2 mps 739 mmHg 50%
20:00 +13°C° 0 mm 2 mps 740 mmHg 54%
21:00 +11°C° 0 mm 3 mps 740 mmHg 58%
22:00 +10°C° 0 mm 3 mps 740 mmHg 63%
23:00 +9°C° 0 mm 3 mps 740 mmHg 68%

15 June, Tuesday

Time Temperature Precipitation Wind Pressure Humidity
00:00 +8°C° 0 mm 3 mps 740 mmHg 73%
01:00 +8°C° 0 mm 2 mps 739 mmHg 74%
02:00 +8°C° 0 mm 2 mps 739 mmHg 75%
03:00 +9°C° 0 mm 1 mps 739 mmHg 76%
04:00 +10°C° 0.1 mm 1 mps 739 mmHg 73%
05:00 +11°C° 0.1 mm 1 mps 739 mmHg 70%
06:00 +12°C° 0.1 mm 1 mps 740 mmHg 67%
07:00 +14°C° 0 mm 2 mps 740 mmHg 61%
08:00 +15°C° 0 mm 2 mps 740 mmHg 55%
09:00 +17°C° 0 mm 2 mps 739 mmHg 49%
10:00 +17°C° 0 mm 2 mps 739 mmHg 46%
11:00 +18°C° 0 mm 2 mps 739 mmHg 44%
12:00 +19°C° 0 mm 3 mps 739 mmHg 41%
13:00 +19°C° 0 mm 3 mps 739 mmHg 41%
14:00 +19°C° 0 mm 2 mps 739 mmHg 40%
15:00 +20°C° 0 mm 2 mps 739 mmHg 40%
16:00 +19°C° 0 mm 2 mps 739 mmHg 43%
17:00 +20°C° 0 mm 1 mps 739 mmHg 46%
18:00 +20°C° 0 mm 1 mps 739 mmHg 50%
19:00 +18°C° 0 mm 1 mps 739 mmHg 57%
20:00 +14°C° 0 mm 1 mps 740 mmHg 63%
21:00 +12°C° 0 mm 2 mps 740 mmHg 70%
22:00 +10°C° 0 mm 2 mps 740 mmHg 75%
23:00 +9°C° 0 mm 2 mps 740 mmHg 80%

16 June, Wednesday

Time Temperature Precipitation Wind Pressure Humidity
00:00 +8°C° 0 mm 2 mps 740 mmHg 84%
01:00 +8°C° 0 mm 2 mps 741 mmHg 86%
02:00 +7°C° 0 mm 2 mps 741 mmHg 88%
03:00 +8°C° 0 mm 1 mps 741 mmHg 90%
04:00 +9°C° 0 mm 2 mps 741 mmHg 82%
05:00 +10°C° 0 mm 2 mps 741 mmHg 75%
06:00 +13°C° 0 mm 2 mps 742 mmHg 68%
07:00 +15°C° 0 mm 2 mps 742 mmHg 62%
08:00 +17°C° 0 mm 2 mps 742 mmHg 56%
09:00 +18°C° 0 mm 2 mps 742 mmHg 50%
10:00 +19°C° 0 mm 2 mps 742 mmHg 47%
11:00 +20°C° 0 mm 2 mps 741 mmHg 44%
12:00 +23°C° 0 mm 2 mps 741 mmHg 41%
13:00 +23°C° 0 mm 2 mps 741 mmHg 41%
14:00 +23°C° 0 mm 2 mps 740 mmHg 41%
15:00 +23°C° 0 mm 2 mps 740 mmHg 41%
16:00 +23°C° 0 mm 2 mps 740 mmHg 46%
17:00 +21°C° 0 mm 2 mps 740 mmHg 50%
18:00 +21°C° 0 mm 2 mps 740 mmHg 55%
19:00 +19°C° 0 mm 2 mps 739 mmHg 61%
20:00 +17°C° 0 mm 2 mps 739 mmHg 67%
21:00 +15°C° 0 mm 2 mps 739 mmHg 73%
22:00 +14°C° 0 mm 2 mps 739 mmHg 76%
23:00 +14°C° 0 mm 2 mps 739 mmHg 78%

17 June, Thursday

Time Temperature Precipitation Wind Pressure Humidity
00:00 +13°C° 0 mm 2 mps 739 mmHg 81%
01:00 +13°C° 0 mm 2 mps 739 mmHg 81%
02:00 +13°C° 0 mm 2 mps 739 mmHg 81%
03:00 +12°C° 0 mm 2 mps 738 mmHg 80%
04:00 +13°C° 0 mm 3 mps 738 mmHg 76%
05:00 +16°C° 0 mm 3 mps 738 mmHg 72%
06:00 +17°C° 0 mm 3 mps 738 mmHg 67%
07:00 +19°C° 0 mm 4 mps 738 mmHg 64%
08:00 +21°C° 0 mm 4 mps 737 mmHg 61%
09:00 +23°C° 0 mm 4 mps 737 mmHg 57%
10:00 +23°C° 0 mm 4 mps 737 mmHg 56%
11:00 +25°C° 0 mm 4 mps 737 mmHg 55%
12:00 +25°C° 0 mm 4 mps 736 mmHg 53%
13:00 +25°C° 0.2 mm 4 mps 736 mmHg 57%
14:00 +24°C° 0.2 mm 3 mps 735 mmHg 60%
15:00 +24°C° 0.2 mm 3 mps 735 mmHg 64%
16:00 +23°C° 0.1 mm 2 mps 735 mmHg 69%
17:00 +22°C° 0.1 mm 1 mps 734 mmHg 73%
18:00 +21°C° 0.1 mm 1 mps 734 mmHg 78%
19:00 +20°C° 0.4 mm 1 mps 734 mmHg 83%
20:00 +19°C° 0.4 mm 2 mps 734 mmHg 89%
21:00 +18°C° 0.4 mm 3 mps 734 mmHg 94%
22:00 +17°C° 0.3 mm 2 mps 734 mmHg 95%
23:00 +17°C° 0.3 mm 2 mps 734 mmHg 95%
Show more